Location: Unspecified
(0.0000°N, 0.0000°E)
Time: 17:05:16
(UTC+00:00)

Courier 1B Rocket - Pass Details

Date: 13 April 2021
Orbit: 920 x 1202 km, 28.3° (Epoch: 14 May)

Event Time Altitude Azimuth Distance (km) Brightness Sun altitude
Rises 18:19:27 0° 243° (WSW) 3,629 9.0 -4.7°
Reaches altitude 10° 18:22:02 10° 244° (WSW) 2,713 8.3 -5.3°
Maximum altitude 18:28:37 77° 330° (NNW) 1,047 5.3 -7.0°
Drops below altitude 10° 18:35:43 10° 55° (NE) 2,912 7.1 -8.7°
Sets 18:38:34 0° 57° (ENE) 3,911 7.7 -9.4°
